Flag for U.S.A. Weather past 2 weeks in Orlando, Florida, U.S.A.

Now
88 °F

Passing clouds.


Feels Like: 96 °F
Forecast: 76 / 90 °F
Wind: 23 mph from West

Location: Orlando Executive Airport

Current Time: Apr 26, 2015 at 6:03:49 PM

Latest Report: Apr 26, 2015 at 4:53 PM


Visibility: 10 mi

Pressure: 29.72 "Hg

Humidity: 61%

Dew point: 73 °F

Location of OrlandoLocation

Historic Weather in Orlando — Graph

°F

Orlando temperature yesterday

Maximum temperature yesterday: 89 °F (at 3:53 PM)
Minimum temperature yesterday: 69 °F (at 6:53 AM)
Average temperature yesterday: 79 °F

Past Weeks' High & Low Weather Summary

 TemperatureHumidityPressure
High90 °F (Apr 19, 1:53 PM)97% (Apr 17, 6:53 AM)30.20 "Hg (Apr 17, 6:53 AM)
Low67 °F (Apr 20, 6:53 PM)30% (Apr 22, 4:53 PM)29.72 "Hg (Apr 26, 4:53 PM)
Average77 °F75%30.00 "Hg
* Reported Apr 11 4:53 PM — Apr 26 4:53 PM, Orlando, Weather by CustomWeather, © 2015

Note: Actual official high and low records may vary slightly from our data, if they occured in-between our weather recording intervals... More about our weather records

Advertising

Orlando weather history for previous 24 hours

 ConditionsComfort  
Time TempWeatherWind HumidityBarometerVisibility
4:53 PM
Sun, Apr 26
88 °FPassing clouds.23 mph61%29.72 "Hg10 mi
3:53 PM88 °FScattered clouds.17 mph61%29.73 "Hg10 mi
2:53 PM87 °FPassing clouds.20 mph61%29.76 "Hg10 mi
1:53 PM86 °FPassing clouds.15 mph63%29.77 "Hg10 mi
12:53 PM85 °FPartly sunny.20 mph65%29.79 "Hg9 mi
11:53 AM86 °FScattered clouds.20 mph65%29.80 "Hg10 mi
10:53 AM85 °FScattered clouds.15 mph68%29.80 "Hg10 mi
9:53 AM82 °FPartly sunny.13 mph77%29.80 "Hg10 mi
8:53 AM80 °FPartly sunny.14 mph79%29.81 "Hg10 mi
7:53 AM78 °FPassing clouds.9 mph84%29.79 "Hg9 mi
6:53 AM78 °FMostly cloudy.9 mph84%29.78 "Hg10 mi
5:53 AM78 °FMostly cloudy.12 mph84%29.76 "Hg10 mi
4:53 AM78 °FOvercast.13 mph82%29.76 "Hg10 mi
3:53 AM78 °FMostly cloudy.12 mph84%29.77 "Hg10 mi
2:53 AM77 °FPassing clouds.13 mph88%29.76 "Hg10 mi
1:53 AM78 °FClear.15 mph82%29.79 "Hg10 mi
12:53 AM79 °FClear.12 mph79%29.81 "Hg10 mi
11:53 PM
Sat, Apr 25
79 °FPassing clouds.13 mph77%29.86 "Hg10 mi
10:53 PM80 °FClear.12 mph69%29.86 "Hg10 mi
9:53 PM81 °FClear.10 mph65%29.83 "Hg10 mi
8:53 PM83 °FSunny.12 mph59%29.82 "Hg10 mi
7:53 PM84 °FSunny.12 mph57%29.81 "Hg10 mi
6:53 PM86 °FSunny.14 mph53%29.81 "Hg10 mi
Weather by CustomWeather, © 2015

See weather overviewHow to use our weather pages